Weather History for KARB - July, 2014

Change the Weather History Date:

Tuesday, July 29, 2014

  Actual Average Record
Temperature  
Mean Temperature 59 °F -  
Max Temperature 75 °F 80 °F 90 °F (1999)
Min Temperature 43 °F 56 °F 43 °F (2014)
Degree Days  
Heating Degree Days 6    
Growing Degree Days 9 (Base 50)    
Moisture  
Dew Point 49 °F    
Average Humidity 79    
Maximum Humidity 93    
Minimum Humidity 46    
Precipitation  
Precipitation 0.16 in - - ()
Sea Level Pressure  
Sea Level Pressure 29.99 in    
Wind  
Wind Speed 4 mph (WSW)    
Max Wind Speed 16 mph    
Max Gust Speed 18 mph    
Visibility 7 miles    
Events Rain , Thunderstorm    
Averages and records for this station are not official NWS values.
T = Trace of Precipitation, MM = Missing Value Source: NWS Daily Summary

Daily Weather History Graph

Daily Weather History Graph

Search for Another Location

Airport or City:

Trip Planner

Search our weather history database for the weather conditions in past years. The results will help you decide how hot, cold, wet, or windy it might be!

Date:

Astronomy

Jul. 29, 2014 Rise Set
Actual Time 6:24 AM EDT 8:57 PM EDT
Civil Twilight 5:52 AM EDT 9:29 PM EDT
Nautical Twilight 5:12 AM EDT 10:09 PM EDT
Astronomical Twilight 4:27 AM EDT 10:53 PM EDT
Moon 9:04 AM EDT (7/29) 10:04 PM EDT (7/29)
Length of Visible Light 15h 36m
Length of Day
14h 32m
Waxing Crescent, 7% of the Moon is Illuminated
Jul 29
Waxing Crescent
Aug 3
First Quarter
Aug 10
Full
Aug 17
Last Quarter
Aug 25
New

Hourly Weather History & Observations

Time (EDT) Temp. Windchill Dew Point Humidity Pressure Visibility Wind Dir Wind Speed Gust Speed Precip Events Conditions
12:53 AM 46.0 °F 44.8 °F 42.1 °F 86% 30.01 in 10.0 mi WSW 3.5 mph - N/A   Clear
1:40 AM 45.0 °F - 43.0 °F 93% 30.01 in 2.0 mi Calm Calm - N/A   Clear
1:51 AM 44.6 °F 43.1 °F 42.8 °F 93% 30.01 in 1.2 mi SW 3.5 mph - N/A   Clear
1:53 AM 43.0 °F 41.3 °F 41.0 °F 93% 30.01 in 1.0 mi SW 3.5 mph - N/A   Clear
2:04 AM 44.1 °F - 39.9 °F 85% 30.01 in 2.0 mi Calm Calm - N/A   Clear
2:12 AM 44.1 °F - 41.0 °F 89% 30.01 in 7.0 mi Calm Calm - N/A   Clear
2:27 AM 46.9 °F - 44.1 °F 90% 30.00 in 2.5 mi Calm Calm - N/A   Partly Cloudy
2:36 AM 45.0 °F - 43.0 °F 93% 30.00 in 1.2 mi Calm Calm - N/A   Scattered Clouds
2:46 AM 46.0 °F - 43.0 °F 89% 30.00 in 0.8 mi Calm Calm - N/A   Scattered Clouds
2:53 AM 46.0 °F 44.8 °F 43.0 °F 89% 30.00 in 1.2 mi WSW 3.5 mph - N/A   Mostly Cloudy
3:04 AM 44.1 °F - 42.1 °F 93% 30.00 in 1.5 mi Calm Calm - N/A   Mostly Cloudy
3:17 AM 45.0 °F 43.5 °F 43.0 °F 93% 29.99 in 3.0 mi West 3.5 mph - N/A   Overcast
3:53 AM 48.0 °F - 46.0 °F 93% 30.00 in 10.0 mi Calm Calm - N/A   Overcast
4:19 AM 46.9 °F - 45.0 °F 93% 30.00 in 1.8 mi Calm Calm - N/A   Mostly Cloudy
4:26 AM 46.9 °F - 44.1 °F 90% 30.00 in 3.0 mi Calm Calm - N/A   Partly Cloudy
4:53 AM 46.9 °F - 43.0 °F 86% 30.00 in 10.0 mi Calm Calm - N/A   Clear
5:16 AM 43.0 °F 41.3 °F 41.0 °F 93% 30.00 in 1.8 mi SW 3.5 mph - N/A   Clear
5:24 AM 44.1 °F - 41.0 °F 89% 30.00 in 3.0 mi Calm Calm - N/A   Clear
5:53 AM 44.1 °F 42.5 °F 42.1 °F 93% 30.00 in 10.0 mi WSW 3.5 mph - N/A   Clear
6:53 AM 46.9 °F - 44.1 °F 90% 30.00 in 10.0 mi WSW 4.6 mph - N/A   Clear
7:53 AM 52.0 °F - 48.9 °F 89% 30.01 in 10.0 mi WSW 3.5 mph - N/A   Clear
8:53 AM 60.1 °F - 48.9 °F 67% 30.01 in 10.0 mi WNW 9.2 mph - N/A   Clear
10:53 AM 68.0 °F - 48.9 °F 50% 30.01 in 10.0 mi WNW 10.4 mph - N/A   Clear
11:53 AM 68.0 °F - 48.9 °F 50% 30.01 in 10.0 mi West 10.4 mph - N/A   Overcast
12:53 PM 66.0 °F - 51.1 °F 59% 30.02 in 10.0 mi WSW 9.2 mph - N/A   Overcast
1:53 PM 71.1 °F - 51.1 °F 49% 30.00 in 10.0 mi SW 9.2 mph 18.4 mph 0.00 in   Mostly Cloudy
2:53 PM 72.0 °F - 51.1 °F 48% 29.98 in 10.0 mi North - - N/A   Overcast
3:53 PM 73.9 °F - 52.0 °F 46% 29.96 in 10.0 mi WSW 10.4 mph - N/A   Mostly Cloudy
4:53 PM 75.0 °F - 53.1 °F 46% 29.97 in 10.0 mi West 12.7 mph - N/A   Mostly Cloudy
5:53 PM 73.0 °F - 54.0 °F 51% 29.96 in 10.0 mi West 16.1 mph - N/A   Partly Cloudy
6:34 PM 69.1 °F - 53.1 °F 57% 29.98 in 10.0 mi WNW 10.4 mph - N/A Thunderstorm Mostly Cloudy
6:49 PM 68.0 °F - 53.6 °F 60% 29.98 in 10.0 mi West 9.2 mph - N/A   Overcast
6:53 PM 66.9 °F - 55.0 °F 66% 29.98 in 10.0 mi West 10.4 mph - 0.00 in Rain Light Rain
7:35 PM 64.0 °F - 57.9 °F 80% 29.98 in 10.0 mi West 3.5 mph - 0.01 in Thunderstorm Overcast
7:53 PM 63.0 °F - 57.9 °F 84% 29.98 in 8.0 mi West 8.1 mph - 0.02 in Rain , Thunderstorm Light Thunderstorms and Rain
8:19 PM 62.1 °F - 55.9 °F 80% 29.97 in 10.0 mi West 11.5 mph - 0.01 in Rain Light Rain
8:27 PM 62.1 °F - 55.9 °F 80% 29.98 in 7.0 mi West 15.0 mph - 0.02 in Rain , Thunderstorm Light Thunderstorms and Rain
8:48 PM 60.8 °F - 55.4 °F 82% 29.98 in 3.0 mi West 10.4 mph - 0.12 in Rain Heavy Rain
8:53 PM 60.1 °F - 55.9 °F 86% 29.98 in 4.0 mi West 10.4 mph - 0.13 in Rain Light Rain
9:00 PM 60.1 °F - 55.9 °F 86% 29.98 in 10.0 mi WSW 5.8 mph - 0.01 in Rain , Thunderstorm Light Thunderstorms and Rain
9:15 PM 60.1 °F - 55.0 °F 83% 29.98 in 10.0 mi Calm Calm - 0.01 in   Overcast
9:53 PM 60.1 °F - 55.9 °F 86% 29.97 in 10.0 mi WSW 6.9 mph - 0.01 in   Overcast
10:53 PM 57.9 °F - 55.0 °F 90% 29.98 in 10.0 mi Calm Calm - N/A   Mostly Cloudy
11:53 PM 55.9 °F - 53.1 °F 90% 29.97 in 10.0 mi WSW 4.6 mph - N/A   Clear